Ridgedale, MO

3:37 AM CST on December 09, 2016 (GMT -0600)
Branson

Weather History for KBBG - December, 2012

Change the Weather History Date:

Sunday, December 30, 2012

  Actual Average (KHRO) Record (KHRO)
Temperature  
Mean Temperature 33 °F -  
Max Temperature 42 °F 44 °F 75 °F (1951)
Min Temperature 24 °F 25 °F -5 °F (1983)
Degree Days  
Heating Degree Days 32    
Moisture  
Dew Point 16 °F    
Average Humidity 50    
Maximum Humidity 69    
Minimum Humidity 33    
Precipitation  
Precipitation 0.00 in - - ()
Sea Level Pressure  
Sea Level Pressure 30.31 in    
Wind  
Wind Speed 5 mph (South)    
Max Wind Speed 10 mph    
Max Gust Speed -    
Visibility 10 miles    
Events      
Averages and records for this station are not official NWS values.
T = Trace of Precipitation, MM = Missing Value Source: NWS Daily Summary

Daily Weather History Graph

Daily Weather History Graph

Search for Another Location

Airport or City:

Trip Planner

Search our weather history database for the weather conditions in past years. The results will help you decide how hot, cold, wet, or windy it might be!

Date:

Astronomy

Dec. 30, 2012 Rise Set
Actual Time 7:24 AM CST 5:06 PM CST
Civil Twilight 6:55 AM CST 5:35 PM CST
Nautical Twilight 6:23 AM CST 6:07 PM CST
Astronomical Twilight 5:52 AM CST 6:39 PM CST
Moon 7:34 PM CST (12/30) 8:37 AM CST (12/30)
Length of Visible Light 10h 39m
Length of Day
9h 42m
Waning Gibbous, 95% of the Moon is Illuminated
Dec 30
Waning Gibbous
Jan 4
Last Quarter
Jan 11
New
Jan 18
First Quarter
Jan 26
Full

Hourly Weather History & Observations

Time (CST) Temp. Windchill Dew Point Humidity Pressure Visibility Wind Dir Wind Speed Gust Speed Precip Events Conditions
12:15 AM 24.8 °F 20.5 °F 15.8 °F 69% 30.38 in 10.0 mi WSW 3.5 mph - N/A   Clear
12:35 AM 24.8 °F 20.5 °F 15.8 °F 69% 30.38 in 10.0 mi SSW 3.5 mph - N/A   Clear
12:55 AM 24.8 °F 19.1 °F 15.8 °F 69% 30.38 in 10.0 mi SW 4.6 mph - N/A   Clear
1:15 AM 24.8 °F - 15.8 °F 69% 30.38 in 10.0 mi Calm Calm - N/A   Clear
1:35 AM 24.8 °F 20.5 °F 15.8 °F 69% 30.39 in 10.0 mi SW 3.5 mph - N/A   Clear
1:55 AM 24.8 °F 20.5 °F 15.8 °F 69% 30.39 in 10.0 mi WSW 3.5 mph - N/A   Clear
2:15 AM 24.8 °F 17.9 °F 15.8 °F 69% 30.39 in 10.0 mi SW 5.8 mph - N/A   Clear
6:53 AM 28.4 °F 23.3 °F 14.0 °F 55% 30.40 in 10.0 mi WSW 4.6 mph - N/A   Partly Cloudy
7:53 AM 26.6 °F - 15.8 °F 64% 30.40 in 10.0 mi Calm Calm - N/A   Scattered Clouds
8:51 AM 32.0 °F 26.4 °F 15.8 °F 51% 30.40 in 10.0 mi South 5.8 mph - N/A   Mostly Cloudy
9:52 AM 35.6 °F 30.7 °F 15.8 °F 44% 30.43 in 10.0 mi South 5.8 mph - N/A   Overcast
10:53 AM 37.4 °F 32.8 °F 15.8 °F 41% 30.42 in 10.0 mi SE 5.8 mph - N/A   Overcast
11:47 AM 39.2 °F 33.6 °F 15.8 °F 39% 30.38 in 10.0 mi SSE 8.1 mph - N/A   Overcast
12:48 PM 41.0 °F 35.2 °F 14.0 °F 33% 30.34 in 10.0 mi SSE 9.2 mph - N/A   Overcast
1:50 PM 42.8 °F 37.5 °F 15.8 °F 34% 30.32 in 10.0 mi SE 9.2 mph - N/A   Overcast
2:45 PM 42.8 °F 39.3 °F 15.8 °F 34% 30.32 in 10.0 mi SSE 5.8 mph - N/A   Overcast
3:50 PM 42.8 °F 40.1 °F 15.8 °F 34% 30.31 in 10.0 mi SSE 4.6 mph - N/A   Overcast
4:55 PM 39.2 °F 34.2 °F 15.8 °F 39% 30.30 in 10.0 mi SSE 6.9 mph - N/A   Overcast
5:46 PM 37.4 °F 32.8 °F 14.0 °F 38% 30.29 in 10.0 mi SSE 5.8 mph - N/A   Overcast
6:45 PM 35.6 °F 29.9 °F 14.0 °F 41% 30.28 in 10.0 mi SSE 6.9 mph - N/A   Overcast
7:45 PM 35.6 °F 29.2 °F 15.8 °F 44% 30.27 in 10.0 mi SSE 8.1 mph - N/A   Overcast
8:15 PM 35.6 °F 29.2 °F 15.8 °F 44% 30.26 in 10.0 mi SSE 8.1 mph - N/A   Clear
8:35 PM 35.6 °F 28.6 °F 15.8 °F 44% 30.25 in 10.0 mi SSE 9.2 mph - N/A   Clear
8:45 PM 35.6 °F 28.0 °F 15.8 °F 44% 30.25 in 10.0 mi SSE 10.4 mph - N/A   Overcast
8:55 PM 35.6 °F 28.6 °F 15.8 °F 44% 30.25 in 10.0 mi SSE 9.2 mph - N/A   Clear
9:15 PM 33.8 °F 27.0 °F 15.8 °F 48% 30.24 in 10.0 mi SSE 8.1 mph - N/A   Clear
9:35 PM 35.6 °F 28.6 °F 15.8 °F 44% 30.25 in 10.0 mi SSE 9.2 mph - N/A   Clear
9:55 PM 33.8 °F 27.7 °F 17.6 °F 52% 30.25 in 10.0 mi South 6.9 mph - N/A   Clear
10:15 PM 33.8 °F 27.0 °F 17.6 °F 52% 30.25 in 10.0 mi SSE 8.1 mph - N/A   Clear
10:35 PM 33.8 °F 27.0 °F 17.6 °F 52% 30.24 in 10.0 mi SSE 8.1 mph - N/A   Clear
10:55 PM 33.8 °F 27.7 °F 19.4 °F 56% 30.23 in 10.0 mi SSE 6.9 mph - N/A   Clear
11:15 PM 33.8 °F 29.6 °F 19.4 °F 56% 30.23 in 10.0 mi SE 4.6 mph - N/A   Partly Cloudy
11:35 PM 35.6 °F 30.7 °F 19.4 °F 52% 30.23 in 10.0 mi SSE 5.8 mph - N/A   Partly Cloudy
11:55 PM 35.6 °F 31.7 °F 19.4 °F 52% 30.22 in 10.0 mi SE 4.6 mph - N/A   Mostly Cloudy